Regional Weather Roundup
Issued by NWS

Home | Current Version | Previous Version | Graphics & Text | Print | Product List | Glossary On
Versions: 1 2 3 4 5 6 7 8 9 10 11 12 13 14 15 16 17 18 19 20 21 22 23 24 25 26 27 28 29 30 31 32 33 34 35 36 37 38 39 40 41 42 43 44 45 46 47 48 49 50
000
ASUS43 KLMK 242210
RWRKY
KENTUCKY REGIONAL WEATHER ROUNDUP
NATIONAL WEATHER SERVICE LOUISVILLE KY
600 PM EDT WED AUG 24 2016

NOTE "FAIR" INDICATES FEW OR NO CLOUDS BELOW 12,000 FEET
WITH NO SIGNIFICANT WEATHER AND/OR OBSTRUCTIONS TO VISIBILITY.

KYZ001>023-026-027-061>063-070>075-242300-
WESTERN AND SOUTH CENTRAL KENTUCKY

CITY           SKY/WX    TMP DP  RH WIND       PRES   REMARKS
PADUCAH        SUNNY     90  73  57 SW10G24   30.06S HX  98
HENDERSON      MOSUNNY   90  72  55 SW9       30.04S HX  96
OWENSBORO      MOSUNNY   90  76  63 SW12      30.07S HX 101
HOPKINSVILLE   MOSUNNY   90  74  60 S15       30.10S HX  99
BOWLING GREEN  MOSUNNY   90  71  53 SW13      30.10F HX  96
GLASGOW        SUNNY     89  73  59 S8        30.12F HX  96
$$

KYZ024-025-028>034-038-045-046-053-242300-
NORTH CENTRAL KENTUCKY

CITY           SKY/WX    TMP DP  RH WIND       PRES   REMARKS
LOUISVILLE/SDF PTSUNNY   90  70  51 SW16G24   30.07F HX  95
LOUISVILLE/LOU MOSUNNY   90  71  53 S12       30.08S HX  96
FORT KNOX      MOSUNNY   86  73  64 S10       30.09S HX  93
$$

KYZ035>037-039>044-047>052-055>060-089>105-242300-
NORTHEAST KENTUCKY

CITY           SKY/WX    TMP DP  RH WIND       PRES   REMARKS
LEXINGTON      MOSUNNY   86  70  58 SW10      30.14R HX  90
COVINGTON      CLOUDY    84  73  69 S9        30.09F HX  90
FRANKFORT      MOSUNNY   88  71  57 SW13      30.11R HX  94
$$

KYZ054-064>069-076>088-106>120-242300-
SOUTHEAST KENTUCKY

CITY           SKY/WX    TMP DP  RH WIND       PRES   REMARKS
JACKSON        SUNNY     85  71  63 CALM      30.18S HX  90
LONDON         MOSUNNY   87  67  51 SW6       30.17F HX  90
SOMERSET       MOSUNNY   86  68  54 S7        30.16S
MIDDLESBORO    SUNNY     87  70  57 SW5       30.18S HX  92
MONTICELLO     CLEAR    N/A N/A N/A VRB6G18   30.17S
$$





USA.gov is the U.S. government's official web portal to all federal, state and local government web resources and services.